Météo par heure à Alisivka

Ce jour, 31 Octobre, Samedi

Heure Température Précipitation Vent Pression Humidité
00:00 +10°C° 0 mm 1 m/s 746 mmHg 94%
01:00 +10°C° 0 mm 1 m/s 746 mmHg 93%
02:00 +10°C° 0 mm 1 m/s 746 mmHg 93%
03:00 +10°C° 0 mm 1 m/s 746 mmHg 93%
04:00 +10°C° 0 mm 1 m/s 746 mmHg 93%
05:00 +10°C° 0 mm 1 m/s 746 mmHg 92%
06:00 +10°C° 0 mm 1 m/s 746 mmHg 91%
07:00 +9°C° 0 mm 0 m/s 746 mmHg 89%
08:00 +10°C° 0 mm 0 m/s 746 mmHg 88%
09:00 +11°C° 0 mm 1 m/s 746 mmHg 83%
10:00 +12°C° 0 mm 1 m/s 746 mmHg 78%
11:00 +13°C° 0 mm 1 m/s 746 mmHg 73%
12:00 +13°C° 0.1 mm 1 m/s 745 mmHg 72%
13:00 +14°C° 0.1 mm 2 m/s 745 mmHg 71%
14:00 +14°C° 0.1 mm 2 m/s 744 mmHg 71%
15:00 +12°C° 0.4 mm 3 m/s 744 mmHg 75%
16:00 +12°C° 0.4 mm 3 m/s 744 mmHg 80%
17:00 +11°C° 0.4 mm 4 m/s 743 mmHg 84%
18:00 +12°C° 2.1 mm 5 m/s 743 mmHg 85%
19:00 +12°C° 2.1 mm 5 m/s 743 mmHg 87%
20:00 +11°C° 2.1 mm 6 m/s 743 mmHg 88%
21:00 +12°C° 0.3 mm 5 m/s 742 mmHg 90%
22:00 +12°C° 0.3 mm 5 m/s 742 mmHg 91%
23:00 +12°C° 0.3 mm 4 m/s 742 mmHg 93%

Demain, 1 Novembre, Dimanche

Heure Température Précipitation Vent Pression Humidité
00:00 +10°C° 0.1 mm 5 m/s 742 mmHg 91%
01:00 +10°C° 0.1 mm 6 m/s 742 mmHg 89%
02:00 +9°C° 0.1 mm 7 m/s 743 mmHg 87%
03:00 +9°C° 0 mm 6 m/s 743 mmHg 86%
04:00 +9°C° 0 mm 6 m/s 743 mmHg 85%
05:00 +9°C° 0 mm 5 m/s 743 mmHg 84%
06:00 +9°C° 0 mm 5 m/s 744 mmHg 84%
07:00 +9°C° 0 mm 5 m/s 745 mmHg 84%
08:00 +9°C° 0 mm 5 m/s 745 mmHg 84%
09:00 +10°C° 0 mm 5 m/s 745 mmHg 79%
10:00 +12°C° 0 mm 5 m/s 746 mmHg 73%
11:00 +13°C° 0 mm 4 m/s 746 mmHg 67%
12:00 +12°C° 0.1 mm 4 m/s 746 mmHg 70%
13:00 +12°C° 0.1 mm 4 m/s 746 mmHg 74%
14:00 +11°C° 0.1 mm 3 m/s 746 mmHg 77%
15:00 +11°C° 0.2 mm 4 m/s 745 mmHg 78%
16:00 +11°C° 0.2 mm 4 m/s 745 mmHg 78%
17:00 +12°C° 0.2 mm 4 m/s 745 mmHg 79%
18:00 +10°C° 1.8 mm 5 m/s 745 mmHg 82%
19:00 +10°C° 1.8 mm 6 m/s 744 mmHg 86%
20:00 +10°C° 1.8 mm 7 m/s 744 mmHg 89%
21:00 +10°C° 0.9 mm 7 m/s 744 mmHg 87%
22:00 +10°C° 0.9 mm 7 m/s 744 mmHg 84%
23:00 +9°C° 0.9 mm 7 m/s 744 mmHg 82%

Après-demain, 2 Novembre, Lundi

Heure Température Précipitation Vent Pression Humidité
00:00 +9°C° 0.1 mm 7 m/s 744 mmHg 83%
01:00 +9°C° 0.1 mm 6 m/s 744 mmHg 83%
02:00 +8°C° 0.1 mm 6 m/s 744 mmHg 84%
03:00 +8°C° 0.4 mm 6 m/s 744 mmHg 85%
04:00 +8°C° 0.4 mm 5 m/s 744 mmHg 86%
05:00 +8°C° 0.4 mm 5 m/s 744 mmHg 86%
06:00 +8°C° 0.1 mm 5 m/s 744 mmHg 87%
07:00 +8°C° 0.1 mm 4 m/s 744 mmHg 87%
08:00 +8°C° 0.1 mm 4 m/s 745 mmHg 87%
09:00 +10°C° 0.4 mm 4 m/s 745 mmHg 86%
10:00 +10°C° 0.4 mm 4 m/s 745 mmHg 84%
11:00 +10°C° 0.4 mm 4 m/s 745 mmHg 83%
12:00 +10°C° 0.5 mm 4 m/s 745 mmHg 82%
13:00 +11°C° 0.5 mm 3 m/s 746 mmHg 82%
14:00 +11°C° 0.5 mm 3 m/s 746 mmHg 81%
15:00 +10°C° 0.1 mm 3 m/s 746 mmHg 84%
16:00 +10°C° 0.1 mm 3 m/s 746 mmHg 86%
17:00 +9°C° 0.1 mm 3 m/s 747 mmHg 89%
18:00 +9°C° 0 mm 3 m/s 747 mmHg 90%
19:00 +9°C° 0 mm 2 m/s 748 mmHg 90%
20:00 +8°C° 0 mm 2 m/s 748 mmHg 91%
21:00 +8°C° 0 mm 3 m/s 748 mmHg 91%
22:00 +8°C° 0 mm 3 m/s 748 mmHg 91%
23:00 +8°C° 0 mm 3 m/s 749 mmHg 91%

3 Novembre, Mardi

Heure Température Précipitation Vent Pression Humidité
00:00 +8°C° 0.1 mm 3 m/s 749 mmHg 92%
01:00 +9°C° 0.1 mm 3 m/s 749 mmHg 93%
02:00 +9°C° 0.1 mm 3 m/s 749 mmHg 93%
03:00 +9°C° 0.2 mm 3 m/s 750 mmHg 93%
04:00 +9°C° 0.2 mm 3 m/s 750 mmHg 93%
05:00 +9°C° 0.2 mm 3 m/s 750 mmHg 93%
06:00 +9°C° 0.2 mm 3 m/s 750 mmHg 92%
07:00 +9°C° 0.2 mm 3 m/s 750 mmHg 92%
08:00 +9°C° 0.2 mm 3 m/s 751 mmHg 91%
09:00 +9°C° 0.3 mm 3 m/s 751 mmHg 91%
10:00 +9°C° 0.3 mm 3 m/s 751 mmHg 90%
11:00 +9°C° 0.3 mm 3 m/s 751 mmHg 89%
12:00 +9°C° 0.2 mm 3 m/s 751 mmHg 89%
13:00 +9°C° 0.2 mm 2 m/s 751 mmHg 88%
14:00 +9°C° 0.2 mm 2 m/s 752 mmHg 87%
15:00 +9°C° 0.2 mm 2 m/s 752 mmHg 88%
16:00 +9°C° 0.2 mm 2 m/s 752 mmHg 89%
17:00 +10°C° 0.2 mm 1 m/s 752 mmHg 90%
18:00 +10°C° 0 mm 1 m/s 752 mmHg 89%
19:00 +10°C° 0 mm 1 m/s 752 mmHg 89%
20:00 +9°C° 0 mm 1 m/s 752 mmHg 89%
21:00 +9°C° 0 mm 1 m/s 752 mmHg 90%
22:00 +9°C° 0 mm 1 m/s 752 mmHg 90%
23:00 +8°C° 0 mm 1 m/s 752 mmHg 91%

4 Novembre, Mercredi

Heure Température Précipitation Vent Pression Humidité
00:00 +8°C° 0 mm 1 m/s 752 mmHg 91%
01:00 +8°C° 0 mm 1 m/s 752 mmHg 90%
02:00 +8°C° 0 mm 1 m/s 752 mmHg 90%
03:00 +8°C° 0 mm 1 m/s 752 mmHg 90%
04:00 +8°C° 0 mm 1 m/s 752 mmHg 90%
05:00 +8°C° 0 mm 1 m/s 752 mmHg 91%
06:00 +7°C° 0 mm 2 m/s 752 mmHg 89%
07:00 +8°C° 0 mm 2 m/s 753 mmHg 88%
08:00 +8°C° 0 mm 2 m/s 753 mmHg 86%
09:00 +9°C° 0.1 mm 2 m/s 753 mmHg 82%
10:00 +10°C° 0.1 mm 2 m/s 753 mmHg 77%
11:00 +12°C° 0.1 mm 2 m/s 753 mmHg 73%
12:00 +11°C° 0.1 mm 3 m/s 753 mmHg 70%
13:00 +11°C° 0.1 mm 3 m/s 753 mmHg 68%
14:00 +11°C° 0.1 mm 3 m/s 753 mmHg 66%
15:00 +11°C° 0.1 mm 3 m/s 753 mmHg 70%
16:00 +10°C° 0.1 mm 3 m/s 753 mmHg 73%
17:00 +10°C° 0.1 mm 3 m/s 753 mmHg 77%
18:00 +10°C° 0 mm 4 m/s 753 mmHg 80%
19:00 +8°C° 0 mm 4 m/s 754 mmHg 83%
20:00 +8°C° 0 mm 4 m/s 754 mmHg 86%
21:00 +8°C° 0 mm 4 m/s 754 mmHg 87%
22:00 +8°C° 0 mm 4 m/s 754 mmHg 89%
23:00 +8°C° 0 mm 4 m/s 754 mmHg 90%

5 Novembre, Jeudi

Heure Température Précipitation Vent Pression Humidité
00:00 +7°C° 0 mm 4 m/s 754 mmHg 90%
01:00 +7°C° 0 mm 4 m/s 755 mmHg 91%
02:00 +7°C° 0 mm 4 m/s 755 mmHg 91%
03:00 +7°C° 0 mm 4 m/s 755 mmHg 91%
04:00 +7°C° 0 mm 4 m/s 755 mmHg 91%
05:00 +8°C° 0 mm 3 m/s 756 mmHg 91%
06:00 +7°C° 0 mm 4 m/s 756 mmHg 91%
07:00 +8°C° 0 mm 4 m/s 756 mmHg 90%
08:00 +8°C° 0 mm 4 m/s 757 mmHg 90%
09:00 +8°C° 0 mm 4 m/s 757 mmHg 87%
10:00 +10°C° 0 mm 4 m/s 757 mmHg 83%
11:00 +11°C° 0 mm 3 m/s 757 mmHg 79%
12:00 +11°C° 0 mm 3 m/s 757 mmHg 78%
13:00 +11°C° 0 mm 3 m/s 757 mmHg 77%
14:00 +12°C° 0 mm 3 m/s 757 mmHg 75%
15:00 +11°C° 0 mm 3 m/s 757 mmHg 77%
16:00 +12°C° 0 mm 2 m/s 757 mmHg 79%
17:00 +10°C° 0 mm 2 m/s 757 mmHg 81%
18:00 +10°C° 0 mm 2 m/s 757 mmHg 80%
19:00 +10°C° 0 mm 2 m/s 757 mmHg 80%
20:00 +11°C° 0 mm 1 m/s 757 mmHg 80%
21:00 +11°C° 0 mm 1 m/s 757 mmHg 80%
22:00 +11°C° 0 mm 1 m/s 757 mmHg 79%
23:00 +11°C° 0 mm 1 m/s 757 mmHg 79%
Voir plus

Nous avons besoin de votre consentement

Meteoprog et ses fournisseurs de services peuvent stocker et accéder à des données personnelles telles que des cookies, des identifiants d'appareils ou d'autres technologies similaires sur votre appareil et traiter ces données pour personnaliser le contenu et les publicités, ainsi que pour fournir des fonctionnalités de médias sociaux et analyser le trafic.

  • Stocker et/ou accéder à des informations sur votre appareil

    Des cookies, des identifiants d'appareils ou d'autres informations peuvent être stockés ou accessibles sur votre appareil aux fins indiquées ci-dessus.

  • Annonces et contenus personnalisés, mesure des annonces et des contenus, connaissance de l'audience et développement de produits

    Les annonces et le contenu peuvent être personnalisés en fonction d'un profil. D'autres données peuvent être ajoutées pour mieux personnaliser les annonces et le contenu. Les performances des publicités et du contenu peuvent être mesurées. Il est possible d'obtenir des informations sur le public qui a vu les publicités et le contenu. Ces données peuvent être utilisées pour développer ou améliorer l'expérience de l'utilisateur, les systèmes et les logiciels.

En cliquant sur "J'accepte", vous autorisez l'utilisation de cookies, des identifiants d'appareils, des balises web ou d'autres technologies similaires. Vos paramètres peuvent être modifiés dans le navigateur de votre appareil.

Dans certains cas, des intérêts légitimes peuvent être invoqués plutôt qu'un consentement. Vous pouvez en savoir plus à ce sujet dans notre Politique de confidentialité et de cookies.